Theta_e
326 319 314 316 312 314 311 305 299 297 297 292 286 292 295 293 294 294 295 296 298 299 296 300 306 306 304 305 307 305 302 309 306 300 300 310 323 334 336 335 340 342 343 345 346 348 348 347 349 349 348 348 348 347 347 347 347 347 347 346 345 344 343 343 343 343 343 346 347 348 348 347 346 344 344 343 342 341 340 340 340 340 340 340 340 342 341 339 338 337 337 338 338 337 338 338 338
318 316 315 314 317 314 310 299 292 289 289 288 289 287 291 292 294 294 296 296 297 301 299 304 308 308 306 307 304 309 309 310 306 313 315 329 334 334 335 338 342 341 342 345 346 347 349 348 348 349 348 348 348 348 347 347 346 346 346 346 345 344 344 344 344 343 343 344 347 347 347 346 346 345 344 343 342 342 341 340 340 340 340 341 341 340 342 342 340 340 338 338 338 338 338 337 337
318 315 316 317 314 306 303 301 300 284 288 289 287 289 291 293 293 294 296 294 296 303 305 307 304 303 305 304 305 302 303 319 312 318 326 333 328 331 336 341 342 342 343 345 346 347 349 348 345 348 348 348 348 347 347 347 346 347 346 346 345 344 343 343 343 344 344 346 347 347 347 347 346 344 343 342 342 341 340 340 339 339 339 338 340 340 341 341 340 340 340 340 341 340 339 339 339
316 316 315 311 312 303 298 292 290 288 288 286 284 289 289 293 293 294 294 293 305 300 299 302 305 302 305 300 302 310 313 314 321 325 324 328 331 335 338 341 343 343 345 345 346 347 348 346 346 348 348 348 348 347 347 347 347 346 346 346 345 344 344 343 343 343 343 344 346 346 346 346 346 344 342 342 341 340 339 338 339 339 338 337 338 341 342 342 341 341 341 340 339 338 337 337 338
318 318 311 308 305 305 295 289 287 287 290 285 290 289 291 291 295 292 298 295 301 296 297 299 305 308 307 306 307 306 306 318 324 328 329 332 335 337 339 341 342 342 343 345 346 346 348 343 345 347 348 348 348 347 347 346 347 346 346 345 344 344 344 343 343 343 343 343 346 346 345 345 345 344 343 342 341 340 339 339 339 339 339 340 340 341 342 343 343 343 340 339 339 339 338 339 338
312 310 310 308 305 303 296 293 291 291 290 288 291 292 290 292 295 294 298 297 297 296 298 300 305 307 308 311 309 307 313 316 325 328 331 331 336 338 340 341 341 341 344 345 346 346 347 342 343 347 348 348 348 347 347 347 347 346 345 345 344 344 343 344 343 343 342 345 346 345 345 345 344 343 342 341 340 340 339 338 338 337 338 340 343 343 342 342 342 342 342 341 341 340 340 340 340
316 305 304 306 301 300 296 289 287 285 290 289 293 291 293 292 295 296 298 299 297 298 294 300 302 305 306 305 311 314 317 322 327 328 331 335 338 338 340 340 340 340 342 343 346 346 347 342 346 348 348 348 347 347 347 346 346 346 345 344 343 343 343 343 343 342 342 344 346 345 344 345 343 342 341 340 339 339 338 338 338 338 338 338 340 342 343 343 342 341 342 340 340 340 340 339 339
312 310 304 299 294 293 288 286 287 286 293 288 291 292 292 294 293 299 297 298 298 298 300 298 296 301 300 307 308 315 314 318 325 323 328 337 337 338 340 339 338 339 341 343 344 345 346 341 345 347 348 348 347 347 346 346 346 345 346 345 345 344 343 343 342 342 342 341 345 344 344 344 342 341 341 339 339 338 338 337 337 338 338 338 338 338 338 340 340 341 341 340 340 339 339 339 339
305 304 300 299 292 288 284 289 290 287 288 288 290 290 302 294 294 297 296 294 296 295 299 303 298 299 297 304 306 313 319 319 321 322 334 337 336 337 339 338 338 338 340 342 343 344 345 340 343 346 346 348 347 347 347 346 346 346 345 345 345 344 343 343 342 342 341 340 341 343 343 343 342 341 340 339 338 338 338 337 337 336 337 337 338 338 338 338 339 340 340 339 339 338 338 338 338
304 304 298 295 291 293 284 288 291 292 290 291 292 297 293 292 293 295 295 295 297 295 299 296 297 299 300 302 306 315 322 318 323 331 336 337 337 337 338 338 338 338 340 341 342 343 345 345 340 343 345 347 347 347 347 345 345 345 345 345 344 343 343 342 342 342 341 340 339 342 341 341 341 340 339 339 338 338 337 336 336 336 336 337 337 339 340 339 339 339 338 338 338 338 338 337 337
299 298 297 296 285 286 288 289 285 288 291 289 291 291 294 293 293 291 293 297 293 297 298 297 301 299 302 302 308 313 314 320 328 330 335 337 337 336 337 339 340 340 339 341 342 343 344 346 341 340 342 343 345 347 346 346 345 345 345 344 343 343 342 342 342 341 341 339 339 338 339 338 338 338 338 338 338 337 336 336 336 336 336 337 338 339 339 338 338 339 339 338 337 337 337 337 337
300 297 295 286 288 289 287 287 287 287 289 290 297 294 293 294 293 295 294 297 295 295 298 298 303 303 301 298 306 314 314 322 330 333 336 338 337 337 338 339 340 340 341 341 342 342 343 346 345 341 338 340 341 343 344 344 345 345 345 344 343 342 342 342 341 341 340 339 339 339 339 338 338 337 337 336 337 337 336 336 336 335 336 336 337 337 338 338 338 338 338 337 336 336 336 336 336
297 294 292 290 290 288 286 286 290 293 288 291 296 296 293 294 296 294 292 294 293 296 297 297 300 302 300 300 303 306 319 325 328 332 336 337 336 337 338 339 339 340 340 342 341 342 343 345 345 346 340 334 336 338 338 341 342 344 344 344 343 343 342 341 340 340 339 339 339 339 339 339 338 337 336 335 338 338 336 336 336 336 336 337 337 339 338 337 337 337 336 336 336 336 336 336 335
297 295 294 293 285 285 286 289 286 292 289 294 290 292 293 295 295 292 293 296 293 296 298 295 303 300 301 298 302 305 318 322 325 331 334 336 336 336 336 338 339 339 340 341 341 342 343 344 344 344 342 343 345 339 334 336 339 342 342 342 341 341 341 341 340 340 340 339 338 337 337 337 337 337 336 337 337 337 338 337 336 336 336 336 337 337 337 336 336 336 336 335 335 336 335 335 334
301 294 289 286 285 289 286 291 289 286 293 291 295 293 293 296 291 290 296 294 295 295 297 300 304 299 297 296 295 301 315 322 327 330 332 333 335 336 336 337 337 338 340 341 341 341 342 343 344 343 341 343 344 344 344 342 335 337 338 338 338 339 339 337 337 337 336 335 335 334 333 332 331 332 333 333 334 333 334 332 334 335 335 335 336 336 336 336 336 335 335 334 334 334 334 333 332
298 294 290 290 289 287 289 287 283 288 291 290 292 290 295 295 290 295 294 296 297 297 297 302 302 299 299 298 307 305 308 322 327 330 332 331 333 335 336 336 336 336 337 339 341 341 343 343 344 343 343 343 343 342 342 343 334 332 336 337 337 337 335 334 334 333 329 328 327 328 326 329 328 329 325 330 328 329 330 331 331 335 334 334 335 335 335 335 334 334 334 334 333 332 332 331 330
298 297 292 286 290 287 289 288 288 292 290 289 289 292 296 295 293 293 292 295 297 297 296 300 301 309 297 300 304 309 314 322 326 330 330 330 332 333 334 334 334 334 335 338 340 340 342 342 342 342 343 343 342 342 342 342 338 332 333 331 331 331 331 331 329 324 322 321 323 322 323 331 331 331 331 330 322 329 321 325 330 334 335 334 335 334 334 334 333 333 332 331 330 327 324 324 324
298 294 288 289 287 287 289 291 290 291 292 292 290 291 295 293 294 297 296 296 294 295 298 297 300 307 308 312 312 313 316 324 328 329 329 328 330 330 331 332 332 331 333 335 338 340 341 342 341 341 341 341 341 342 341 341 338 337 340 339 338 333 328 325 329 331 326 330 322 327 330 328 329 329 330 326 329 328 328 323 325 330 333 333 333 333 333 332 331 331 330 328 326 322 319 322 320
292 288 290 291 287 290 292 291 291 292 296 292 291 288 294 295 293 295 296 294 293 296 296 295 299 300 308 312 311 313 320 324 327 329 327 328 329 329 330 331 331 332 331 333 335 339 340 341 341 341 341 341 340 341 341 340 339 339 338 337 336 330 330 330 331 329 330 329 328 328 327 328 328 328 327 326 325 319 326 322 325 328 330 330 331 332 331 330 329 328 327 324 321 318 319 319 319
293 294 292 286 291 291 290 290 292 290 291 291 292 290 292 294 293 294 296 293 292 295 294 295 295 298 302 307 310 317 321 324 327 328 327 328 329 330 330 331 331 332 332 333 334 338 340 340 340 341 340 340 340 340 340 339 339 339 337 336 335 333 332 331 330 329 329 328 327 327 326 326 326 327 321 320 320 325 324 319 320 320 322 322 324 327 328 327 326 323 321 318 316 316 318 317 318
295 292 288 293 289 294 293 289 289 289 291 290 290 289 292 292 292 295 292 294 293 293 292 298 297 297 300 306 312 319 321 322 325 326 327 328 329 332 332 332 333 333 335 335 335 335 338 339 340 340 340 339 340 339 339 339 339 338 337 335 333 332 330 330 329 329 328 327 326 326 325 325 326 325 325 325 323 321 321 322 323 323 322 321 318 319 319 318 317 317 316 315 316 316 316 316 317
293 293 290 290 288 293 292 288 289 287 288 290 288 293 293 292 293 291 293 294 293 295 298 295 297 298 304 309 314 319 320 322 324 324 325 327 327 329 331 333 334 335 336 333 334 335 337 338 339 339 340 339 340 340 339 338 338 337 335 334 332 331 329 328 327 327 326 326 326 325 324 324 324 324 324 323 320 319 318 318 318 318 318 317 316 316 315 315 314 314 314 314 313 314 314 314 314
296 290 288 288 289 292 290 288 288 287 289 290 290 292 292 293 293 288 291 295 293 293 294 293 295 297 308 312 315 318 319 321 322 323 324 325 326 327 329 331 332 332 334 334 335 335 336 337 338 339 339 339 339 340 340 338 338 338 336 334 333 329 328 327 326 325 325 325 324 324 324 323 323 323 322 321 319 317 315 315 315 315 315 314 313 314 313 313 313 313 313 312 312 312 312 312 312
289 292 288 292 289 292 289 290 287 286 290 290 291 291 293 290 294 290 290 293 293 293 291 292 291 309 312 313 316 318 319 320 322 324 325 325 326 326 328 329 331 333 333 335 336 336 335 336 338 338 338 338 338 340 339 338 338 338 336 332 333 329 327 326 325 325 324 324 323 324 323 324 323 322 321 320 317 316 313 312 312 312 312 312 312 313 312 311 311 311 312 312 312 312 312 311 312
292 291 289 290 289 291 288 286 286 285 288 289 289 293 293 290 291 290 291 294 294 292 296 298 306 309 310 313 314 317 319 320 321 322 322 323 324 324 323 326 328 331 331 334 335 335 335 336 337 337 337 337 338 339 338 338 338 338 335 333 333 326 329 327 326 324 323 323 323 323 323 322 322 322 320 319 316 314 311 310 310 310 310 310 311 311 311 311 310 311 311 311 311 311 311 311 310
290 291 289 289 291 290 289 288 287 289 289 288 292 291 290 289 290 292 295 293 291 289 299 303 306 308 309 312 314 316 317 318 319 319 321 322 319 321 323 325 327 329 331 333 334 335 336 336 336 336 337 337 337 338 338 338 338 337 335 334 334 327 330 327 325 324 324 322 322 322 322 322 321 321 320 317 315 312 310 309 309 309 309 309 310 310 310 311 310 310 310 310 310 310 310 309 310
288 289 289 291 290 290 290 292 290 288 291 288 292 290 291 291 291 291 292 291 288 296 299 300 305 307 308 310 313 315 316 317 318 320 316 318 319 320 322 322 325 328 331 332 333 335 336 336 336 336 337 336 337 336 337 337 337 337 336 335 334 329 330 327 324 324 323 322 322 322 322 321 321 320 318 316 315 311 309 308 308 307 307 308 309 309 309 310 310 310 310 309 310 309 308 308 309
289 290 289 289 288 289 289 289 290 290 294 288 292 291 291 291 291 292 294 291 289 294 297 301 300 304 307 308 310 313 314 316 315 315 318 317 319 320 321 322 323 327 329 331 333 335 336 335 336 336 337 336 336 336 336 336 336 337 337 336 334 331 331 327 324 324 321 323 322 321 322 320 319 319 318 315 313 311 309 307 306 307 307 306 308 308 308 308 308 308 308 308 308 307 307 307 307
289 292 291 288 286 293 289 292 291 290 293 291 290 292 291 291 292 292 290 287 291 292 294 296 300 300 302 305 307 309 312 312 312 314 317 319 321 322 321 323 324 325 329 332 333 334 335 336 336 336 337 336 335 335 336 336 336 337 336 336 334 332 332 328 325 323 323 322 322 322 321 320 318 318 316 315 312 311 309 307 305 306 306 306 306 306 306 306 306 306 305 305 305 305 305 305 305
290 288 285 288 286 287 291 288 290 292 292 289 290 287 285 289 295 293 290 288 289 293 292 293 295 296 297 300 305 308 310 310 311 314 316 317 319 320 321 322 323 324 326 329 332 332 334 336 336 336 336 336 335 336 336 335 336 336 336 337 335 333 332 330 326 324 323 322 321 322 321 319 318 317 316 314 312 310 308 306 306 305 304 305 305 306 306 306 306 305 304 305 304 305 305 304 304
291 288 285 283 287 285 289 289 289 292 291 289 290 287 284 284 285 287 286 289 292 292 292 290 290 291 293 295 299 305 308 310 313 314 315 316 316 317 319 320 321 322 323 325 328 331 332 334 335 336 334 336 334 335 335 335 336 336 335 335 335 334 333 331 328 325 324 323 321 321 320 319 318 317 315 313 310 310 308 306 305 304 303 304 304 305 306 305 306 305 305 305 304 304 303 303 304
283 286 285 283 284 285 286 289 287 291 292 289 290 285 288 290 290 287 288 287 289 292 292 291 289 289 289 291 294 297 302 306 308 310 313 314 315 316 317 318 320 320 322 323 325 328 330 333 334 335 335 335 334 334 335 336 336 336 335 330 335 334 333 332 330 327 325 325 321 320 320 319 318 317 314 313 311 310 308 306 305 303 303 303 304 304 305 305 305 304 305 305 303 302 302 302 302
282 286 281 284 283 282 286 291 287 288 291 291 290 287 284 290 291 288 287 287 289 291 290 290 289 289 289 291 292 294 296 297 298 302 308 311 314 316 317 317 318 319 321 322 322 324 327 330 331 333 334 335 336 335 335 335 336 335 335 335 335 334 333 333 332 329 327 326 323 321 320 319 318 317 314 313 311 310 309 307 304 302 302 302 303 303 304 305 304 304 304 304 306 302 302 300 299
287 281 283 282 282 283 285 287 289 288 290 290 289 288 286 289 288 287 287 289 290 290 291 291 291 291 291 291 291 292 293 295 296 298 299 304 311 314 316 315 317 318 319 320 321 322 324 327 329 331 333 334 336 336 335 334 335 335 335 335 332 334 334 334 333 331 328 327 325 323 321 319 318 318 316 313 312 311 310 308 304 302 302 302 302 302 303 303 304 304 303 303 304 302 301 299 297
282 285 283 284 282 281 282 286 288 288 289 289 288 287 290 292 293 293 292 289 290 292 293 293 292 292 292 291 292 292 293 293 296 298 299 299 303 308 313 315 316 317 317 318 319 320 322 323 325 328 330 332 333 335 334 335 335 335 335 335 333 332 331 332 333 332 330 328 327 325 322 320 319 319 317 314 313 311 310 309 305 302 302 302 301 301 301 301 302 303 303 301 302 302 301 300 298
286 287 285 282 284 284 284 282 283 288 289 289 286 289 289 290 291 293 293 289 290 291 290 290 291 292 292 292 292 293 294 294 297 297 296 297 299 301 306 310 313 315 316 316 317 318 319 320 322 325 327 331 332 333 333 332 332 332 331 332 332 332 333 331 332 332 332 329 327 327 324 323 321 319 317 316 314 311 310 309 306 304 303 303 302 301 300 301 301 301 302 301 300 299 299 299 297
285 283 281 282 281 283 283 283 286 285 289 287 286 286 286 289 291 293 294 292 291 290 292 293 294 294 294 294 294 294 293 295 298 297 297 298 297 298 300 304 307 310 312 314 315 316 318 319 319 320 324 328 330 330 331 331 329 329 329 330 330 332 331 332 331 333 334 333 329 328 327 324 322 320 318 317 315 311 311 310 307 304 303 303 303 303 303 303 303 303 302 300 299 297 296 296 296
286 284 284 282 284 284 286 288 286 286 289 285 282 285 289 289 291 292 292 290 291 293 293 293 293 294 294 294 294 294 295 295 295 296 295 294 295 296 296 298 302 304 307 311 313 315 317 318 318 320 322 325 328 330 330 330 331 330 329 329 330 330 330 329 329 330 332 332 330 328 328 326 323 320 319 318 317 313 310 309 306 303 302 303 304 305 305 303 304 304 303 300 301 299 296 295 295
281 284 282 284 283 281 284 285 286 286 288 285 282 287 290 291 292 293 292 293 294 294 294 296 295 295 295 294 294 294 294 295 295 295 295 295 295 295 295 296 298 303 305 308 311 314 315 317 318 319 320 322 325 328 329 329 331 331 331 329 330 328 330 331 331 330 330 330 330 329 329 328 326 324 322 319 317 315 313 310 307 304 302 303 303 303 303 302 302 303 302 302 299 301 298 295 295
282 282 283 283 281 286 285 285 285 286 286 288 286 286 290 291 288 289 292 292 292 291 291 292 293 294 295 296 295 295 294 295 296 296 296 294 294 294 294 295 297 299 301 305 308 310 313 315 317 318 319 321 323 326 325 329 330 328 328 325 327 328 324 324 326 326 329 330 329 330 330 330 329 327 324 320 318 317 314 311 310 307 304 303 303 303 302 302 302 302 302 302 300 297 296 294 296
284 283 281 282 284 284 283 287 284 282 285 283 284 286 287 282 284 286 283 283 284 286 287 288 291 292 293 293 293 293 294 295 296 296 295 294 292 293 293 295 296 297 299 302 306 309 311 314 316 318 319 319 322 323 324 326 324 322 318 318 319 318 318 322 322 323 326 324 325 326 328 328 329 328 325 322 319 318 316 315 312 309 306 304 304 304 303 302 302 302 301 302 300 300 296 295 295
286 284 284 284 283 285 284 284 285 279 283 282 281 283 277 278 281 283 286 284 288 286 288 290 290 288 288 290 292 293 294 294 295 296 296 294 293 292 292 292 295 297 299 301 305 308 311 313 315 316 317 318 319 321 323 324 323 322 319 320 319 320 320 319 321 323 322 323 324 326 325 327 328 327 326 324 321 318 318 315 314 311 307 304 304 306 305 304 302 302 303 303 302 302 300 297 294
285 286 285 283 284 284 284 284 283 280 281 283 281 283 278 281 283 286 284 284 288 290 287 290 290 289 287 289 290 290 291 292 292 293 294 293 294 292 293 292 294 296 299 301 303 307 309 312 313 315 316 317 318 319 321 321 322 322 321 323 323 322 322 322 325 326 325 325 326 326 326 324 326 327 326 326 324 321 320 318 315 312 309 307 305 306 305 303 302 302 303 303 302 302 302 297 296
284 284 283 284 285 286 284 283 284 281 281 285 280 278 278 280 286 284 282 284 287 288 290 290 290 287 286 287 288 288 290 290 291 292 292 292 292 293 294 294 294 296 299 301 303 305 308 310 312 314 315 315 316 318 319 321 322 321 321 322 322 322 322 323 323 323 324 324 323 323 323 323 323 323 325 325 326 324 321 321 318 315 312 310 306 305 305 305 304 303 302 302 303 302 301 301 300
283 283 284 285 285 283 281 282 281 280 282 283 278 285 281 279 282 282 281 287 285 288 290 291 290 289 288 288 290 290 290 289 289 290 292 292 292 292 292 293 295 296 298 301 303 305 307 309 310 312 313 313 313 315 317 319 321 321 321 321 320 321 322 320 312 314 319 320 322 322 322 323 322 322 322 323 323 323 320 320 319 317 314 313 307 308 307 307 306 304 302 301 301 301 301 302 303
286 283 284 283 282 282 282 280 282 280 279 275 280 282 277 279 280 282 280 286 285 289 291 290 288 287 288 289 291 292 292 290 288 287 289 291 291 292 293 294 295 296 297 299 300 303 306 307 309 310 310 312 312 313 315 317 319 319 319 319 319 319 316 310 311 313 315 315 318 319 320 320 321 321 321 320 320 320 320 319 318 317 314 312 307 308 307 306 305 304 302 301 301 301 302 301 302
286 285 288 284 281 280 279 278 278 277 274 277 278 278 279 277 280 283 286 285 285 285 284 283 286 286 287 288 288 291 291 292 292 291 290 290 291 291 291 296 296 295 296 299 301 303 304 307 308 309 309 309 309 312 313 315 317 317 318 318 318 318 315 314 310 308 308 308 312 316 317 318 318 319 319 318 318 318 319 319 319 319 316 313 309 308 307 306 306 304 303 302 301 301 301 301 301
286 284 281 286 283 279 278 272 276 273 270 273 277 278 279 276 278 281 282 283 282 286 288 288 288 288 289 289 289 289 289 289 290 291 293 293 296 295 295 296 297 297 297 299 299 300 303 305 306 307 304 306 307 309 311 312 314 315 316 317 316 317 316 314 313 314 310 310 311 313 315 316 316 316 316 316 315 315 315 315 314 316 315 315 312 310 309 308 307 306 305 303 303 302 302 301 301
284 283 286 280 273 270 275 270 275 273 270 278 277 277 278 280 283 285 284 286 286 283 286 288 288 288 288 289 290 290 289 289 289 291 291 294 294 295 296 295 296 297 299 298 299 300 301 303 305 307 305 304 306 307 309 310 311 312 313 314 314 314 313 313 313 313 312 311 311 311 312 312 313 312 314 315 316 316 315 315 314 314 314 314 313 312 310 309 308 307 305 304 303 302 301 301 300
283 285 280 277 271 268 267 263 263 268 273 276 279 278 278 280 282 287 290 293 288 284 285 286 287 288 289 289 289 289 289 288 289 289 289 290 292 292 292 294 295 296 296 297 297 299 300 301 302 306 304 302 303 305 306 307 308 310 311 312 312 312 311 311 312 312 311 311 311 310 310 311 311 312 313 314 317 317 317 317 317 316 315 315 314 313 311 310 309 307 306 305 303 303 303 301 301
286 283 286 283 273 269 268 265 273 272 271 273 274 275 275 276 285 287 286 289 287 285 285 285 285 285 286 287 287 287 287 289 289 290 291 292 292 292 293 293 293 294 295 295 296 297 298 300 301 302 301 300 301 304 304 306 307 307 307 309 310 309 310 310 311 311 311 309 309 309 309 309 310 311 312 314 314 315 316 317 317 317 316 315 313 312 311 311 309 308 306 306 305 304 303 302 301
284 281 283 280 280 276 270 266 266 264 269 271 274 276 278 282 283 285 286 286 287 287 286 284 286 286 285 286 288 289 288 288 290 291 292 293 292 292 291 292 292 292 294 294 295 296 298 299 299 300 302 301 301 302 303 305 306 306 305 306 307 307 308 308 308 307 308 308 308 308 308 308 308 309 308 308 309 310 312 313 315 315 315 315 314 312 311 310 309 308 307 306 305 305 303 302 301
285 284 279 281 281 279 270 268 270 270 268 272 269 277 281 281 284 288 285 284 286 285 285 284 286 285 284 287 288 288 288 288 289 291 292 292 291 292 291 292 292 292 293 295 296 296 298 297 298 299 298 298 299 300 302 302 303 303 304 305 305 305 305 306 307 307 306 306 306 307 307 307 307 306 306 305 306 306 308 309 311 312 313 313 313 312 311 310 309 307 306 305 305 305 303 302 301
285 280 283 282 282 281 278 274 265 263 269 272 271 275 278 276 281 282 279 283 285 284 287 284 283 284 287 289 288 289 290 289 288 289 290 290 291 291 291 290 291 292 294 294 295 295 296 297 297 298 297 299 298 299 300 300 301 301 302 303 303 304 305 305 305 306 305 304 304 305 305 304 305 305 305 304 304 304 305 303 307 308 309 310 311 311 310 309 308 307 306 306 306 305 304 303 302
284 282 285 286 279 278 277 272 269 266 265 265 269 272 273 278 281 280 283 285 289 288 287 287 289 286 286 287 286 286 286 287 289 289 290 290 291 292 291 292 290 291 291 293 294 294 294 295 296 298 299 299 299 298 299 299 300 301 302 302 302 302 303 303 304 304 303 303 304 304 304 304 304 303 302 303 302 302 302 303 304 304 305 306 307 307 307 308 306 306 306 305 305 306 305 304 304
285 286 284 284 280 273 274 276 270 273 267 263 269 267 278 279 279 279 286 286 284 282 284 285 285 286 285 286 286 287 288 288 288 288 289 290 290 290 291 291 293 293 292 292 292 292 295 295 295 296 295 295 295 297 297 298 299 299 299 299 299 301 301 302 302 302 302 302 303 303 303 302 303 303 302 302 302 301 301 301 301 302 303 304 304 305 305 305 305 306 306 306 305 305 304 303 303
282 283 281 285 279 281 280 277 275 275 266 264 265 269 273 277 279 281 285 284 284 284 286 286 287 288 287 285 287 287 287 287 287 287 289 290 290 289 290 289 289 289 289 290 292 294 295 294 295 295 297 296 296 296 296 298 297 297 297 298 299 299 299 300 300 300 301 302 302 302 302 303 300 301 300 300 300 300 301 300 301 300 301 302 302 303 303 304 304 305 305 305 305 304 303 302 301
286 285 283 286 281 279 276 277 275 266 272 267 262 273 274 280 280 285 284 282 282 283 284 285 285 285 285 286 286 286 287 287 287 289 289 290 288 291 292 289 288 288 290 291 291 291 292 294 295 294 294 295 296 296 296 296 296 297 297 298 298 297 298 298 298 299 299 300 300 300 300 298 299 301 299 300 300 300 300 300 300 300 300 301 301 302 302 303 303 303 303 304 304 303 302 301 300
Wind_Speed
6 5 4 3 3 2 2 7 3 3 2 1 1 1 2 1 1 2 2 2 2 2 3 3 8 6 4 4 8 5 2 9 5 5 2 1 2 4 6 4 9 11 10 7 3 6 7 6 10 11 12 12 12 12 13 12 12 12 12 12 13 13 14 14 14 11 12 14 14 15 16 16 18 17 17 17 17 17 17 18 17 16 16 15 17 19 19 19 17 19 19 18 17 18 18 18 18
3 5 4 2 1 1 1 2 5 3 6 3 3 1 2 2 2 5 8 7 3 1 3 5 5 5 5 3 6 5 2 2 4 1 1 2 5 7 4 7 11 13 10 6 5 6 5 8 9 12 12 12 12 12 12 12 12 12 12 12 13 13 14 13 12 12 12 13 14 15 16 16 17 18 18 18 18 18 17 17 16 15 16 17 17 17 17 18 18 18 18 18 18 18 18 18 18
3 6 2 1 3 5 3 4 1 1 2 0 3 6 2 4 5 5 8 3 3 1 4 5 3 2 2 2 0 2 1 2 2 3 2 6 11 6 7 9 11 12 10 5 6 6 4 5 10 12 12 11 12 13 12 12 12 12 13 12 12 13 12 13 13 12 13 13 14 14 16 17 16 18 17 17 17 17 17 16 15 15 15 16 16 16 16 17 17 17 17 18 18 17 18 17 18
1 3 2 3 2 4 1 5 4 6 2 3 2 4 6 6 7 7 5 2 5 4 1 3 4 1 1 2 1 3 1 0 3 3 4 9 4 9 9 11 11 10 7 5 6 4 4 5 10 11 12 11 12 12 12 12 12 12 12 13 12 12 12 12 12 12 12 13 14 14 16 16 16 18 17 17 16 16 16 15 15 15 15 14 14 15 16 16 16 16 17 18 18 17 18 18 18
1 1 1 2 4 1 4 1 4 3 1 5 1 3 6 6 5 6 1 4 4 0 2 2 3 3 1 2 3 1 2 2 1 3 3 3 3 9 11 11 11 10 8 7 6 5 4 7 8 10 12 11 12 12 12 12 11 12 12 12 11 12 12 11 11 12 12 12 14 15 16 16 17 17 17 16 16 16 15 15 14 14 13 14 14 15 15 15 16 17 18 18 17 17 17 18 18
2 3 4 2 1 3 5 2 2 1 3 7 0 2 6 7 7 7 4 3 3 3 2 2 1 4 1 2 1 1 3 3 3 3 5 5 9 10 12 10 12 11 9 8 6 5 5 7 7 9 11 11 11 12 12 12 11 12 11 11 11 11 11 11 11 11 11 13 14 15 15 16 17 16 16 16 16 15 15 14 14 13 12 14 16 15 15 15 16 18 18 17 17 17 17 17 18
1 3 5 4 3 4 3 3 3 4 1 5 0 1 7 6 4 9 4 2 1 1 2 2 2 3 3 2 2 4 2 1 3 2 5 6 9 11 11 10 12 12 10 9 6 6 6 6 6 9 9 10 11 11 11 11 11 11 11 11 11 11 11 11 11 10 12 14 15 15 15 15 15 16 15 15 15 14 14 15 14 12 12 11 14 16 17 17 17 17 16 17 17 17 17 17 18
3 2 2 3 1 4 3 1 1 5 1 6 1 3 3 7 7 5 7 3 2 2 1 2 2 1 0 2 3 0 2 2 2 2 2 9 10 10 11 10 11 11 11 8 8 6 7 4 5 8 9 10 10 11 11 12 11 10 10 11 11 11 11 11 11 11 11 13 15 15 15 16 15 14 14 14 15 13 13 13 13 13 12 12 13 13 14 15 16 17 17 17 17 16 16 17 17
5 7 1 5 3 4 3 1 1 3 6 2 6 6 3 6 5 9 6 2 1 0 2 3 3 2 2 1 2 1 3 2 3 2 6 10 11 11 8 10 12 11 11 9 8 6 7 2 5 8 8 9 9 11 11 12 11 11 10 11 11 11 11 11 11 11 11 12 13 14 15 15 14 13 13 14 13 13 13 13 13 13 12 12 12 12 13 14 14 15 16 16 16 17 16 17 17
2 1 0 2 4 1 2 1 1 2 2 2 2 0 4 5 4 2 7 1 2 2 2 2 1 0 2 1 1 1 2 4 1 5 8 10 10 10 9 9 11 13 11 9 8 7 6 4 5 7 8 8 9 10 11 11 11 11 11 11 11 11 11 11 11 11 11 11 12 14 14 14 13 13 12 13 13 13 13 13 13 12 12 12 13 14 13 14 14 15 15 15 15 15 16 17 16
1 5 2 4 4 2 1 1 4 3 2 5 5 6 4 5 4 3 1 1 1 2 0 2 0 3 1 1 3 2 4 2 6 8 9 10 10 10 9 8 9 10 10 10 9 7 6 4 5 7 7 8 8 8 9 10 11 11 10 11 11 11 11 11 11 12 11 11 10 11 12 11 12 12 11 12 12 12 13 13 13 13 12 12 13 14 13 13 14 15 15 15 15 15 16 16 16
1 1 2 4 1 3 2 2 1 6 7 2 2 1 4 7 3 3 1 4 2 0 3 5 1 8 2 3 1 1 4 3 7 7 9 10 9 9 8 7 8 8 10 10 8 7 7 4 5 6 7 7 7 8 8 9 9 10 10 11 11 11 11 12 11 12 11 11 10 11 11 10 11 12 11 11 11 10 12 13 13 12 12 12 12 13 13 14 14 14 15 15 14 15 16 16 16
4 1 6 6 0 1 2 1 0 3 4 2 3 0 4 6 4 4 4 2 2 3 3 9 1 0 1 2 2 5 3 6 6 6 6 10 8 8 7 7 8 8 9 9 9 8 8 5 5 6 6 7 7 8 7 8 9 9 10 10 10 10 10 11 12 11 11 11 11 10 11 10 9 10 11 10 7 8 12 12 12 11 12 13 13 14 14 13 14 14 14 14 15 15 16 16 17
6 5 5 1 2 4 3 0 2 2 2 1 3 1 4 3 3 5 7 4 3 4 2 1 2 2 1 1 1 2 4 4 6 7 5 7 6 7 8 7 8 8 8 9 9 9 8 6 5 5 6 5 6 7 7 8 9 9 9 9 9 9 9 9 10 10 10 10 10 10 10 9 9 10 10 9 6 7 12 14 12 11 12 12 13 13 14 14 14 14 14 14 14 15 16 16 15
3 2 6 5 2 1 2 2 4 4 3 2 2 7 3 2 5 4 6 4 6 3 2 0 1 2 4 6 3 5 6 6 7 6 7 7 6 8 8 7 7 7 7 8 8 9 9 7 6 6 6 5 6 5 5 7 9 9 10 9 9 9 8 8 8 9 10 10 10 10 10 10 10 10 9 9 7 9 10 12 11 9 12 12 13 13 14 14 14 14 14 14 14 15 16 14 14
5 6 4 3 0 3 2 2 1 4 3 5 1 1 3 1 2 4 4 1 0 1 0 3 1 2 0 3 1 3 4 7 7 7 8 7 6 6 8 7 6 7 7 8 7 8 8 8 6 5 6 6 6 5 6 7 7 10 9 10 10 9 9 8 10 10 10 11 11 11 10 9 9 8 10 8 9 9 10 9 10 10 11 12 13 13 13 13 13 14 14 15 16 15 14 14 13
2 4 2 3 1 2 2 2 6 2 3 4 2 3 6 3 1 2 2 1 2 2 1 1 2 1 3 1 2 3 1 6 8 9 9 7 6 6 7 6 5 5 5 8 7 9 8 8 8 6 6 6 6 6 6 7 7 9 8 9 10 10 9 9 10 11 10 10 10 10 9 6 5 5 6 5 7 7 8 9 9 9 9 10 11 13 13 13 13 13 14 14 14 15 12 12 12
2 3 6 2 2 2 7 7 10 1 3 3 4 7 5 3 0 0 2 3 2 1 1 2 1 5 2 2 2 4 3 9 10 11 9 8 7 7 8 7 7 7 7 7 8 9 8 7 8 7 6 7 6 5 4 5 5 7 8 7 7 7 8 9 7 6 7 6 9 7 5 4 4 4 4 5 4 6 8 10 9 9 9 9 10 12 13 12 12 13 13 14 13 12 9 6 7
5 2 3 5 5 3 8 6 6 3 0 4 4 3 4 4 6 2 2 2 1 1 2 2 2 2 2 3 2 4 7 9 11 11 11 11 11 11 10 9 8 7 8 8 8 9 8 7 6 8 7 7 6 7 5 5 6 6 7 6 6 7 7 7 6 6 5 5 5 5 4 3 4 4 4 5 5 8 9 10 10 9 8 8 9 10 12 12 12 12 13 12 12 9 6 5 4
1 5 2 3 9 2 4 3 7 2 5 5 5 2 2 1 3 1 2 1 1 5 4 2 3 6 7 2 3 9 8 9 10 12 11 11 10 11 11 12 10 9 8 8 8 7 6 8 7 7 7 7 6 6 5 5 5 6 6 6 6 6 6 6 7 7 7 5 5 4 4 4 4 3 6 9 8 5 6 10 11 11 11 10 10 9 10 11 11 12 12 10 7 4 4 4 4
1 3 4 3 5 3 1 6 3 4 1 6 5 2 2 1 3 2 3 2 4 7 8 8 10 10 8 5 7 10 11 10 11 10 10 11 10 8 9 9 10 9 7 7 7 9 8 7 8 6 7 7 7 5 6 6 6 5 6 6 6 6 6 6 6 7 7 7 6 4 4 4 4 3 3 3 4 4 4 4 4 4 4 5 8 5 4 4 4 5 5 5 4 4 5 4 3
4 1 1 2 3 1 0 5 3 3 1 9 5 8 6 2 1 3 8 7 6 8 7 11 8 5 11 11 12 10 11 12 12 12 13 13 14 13 9 7 7 7 5 8 9 8 9 7 8 7 6 7 8 6 6 5 7 6 6 6 6 6 6 5 5 6 6 7 6 6 4 4 4 4 3 4 4 4 4 4 4 4 4 4 3 4 3 3 3 4 4 4 4 3 4 4 4
3 1 0 2 1 1 1 2 4 5 4 6 7 4 4 4 1 1 5 9 4 5 1 5 5 6 6 8 13 12 12 13 13 14 15 14 13 13 12 9 8 9 8 8 7 8 9 9 7 8 9 7 8 6 6 6 6 6 6 7 7 6 6 6 5 5 6 7 7 6 5 5 4 4 4 4 4 3 4 3 4 3 4 4 3 4 4 3 3 4 4 4 4 4 5 4 5
4 4 1 1 1 1 1 1 3 2 8 5 3 1 3 4 4 1 3 8 3 1 1 3 3 5 9 12 14 17 16 16 16 17 16 18 17 16 12 11 9 5 6 9 8 8 8 11 10 7 9 8 7 7 7 6 5 7 6 7 7 6 6 7 6 6 6 6 7 5 4 5 5 5 4 4 4 3 4 3 3 3 4 4 3 2 4 3 3 3 4 4 5 4 5 4 4
2 1 2 1 0 0 1 1 3 2 1 1 3 6 0 5 2 1 7 9 7 5 2 3 6 6 5 10 14 13 13 13 14 13 8 7 8 6 6 6 8 8 9 10 9 8 9 8 10 10 10 10 8 7 8 6 6 6 7 7 6 8 6 5 7 6 6 6 7 7 5 5 4 4 5 4 3 4 4 4 3 3 3 4 4 3 3 4 4 4 4 4 4 4 4 4 4
2 1 4 2 1 1 0 4 3 2 2 2 5 1 2 3 1 3 10 6 4 3 3 6 6 6 8 11 14 13 13 15 12 10 14 9 5 8 9 10 9 11 14 13 10 9 8 9 10 10 11 11 9 8 8 7 7 6 7 8 7 7 6 6 7 7 6 6 6 7 5 5 5 6 5 4 5 4 4 4 3 3 3 3 3 4 2 3 4 4 4 4 5 4 4 3 4
3 5 3 5 1 0 2 1 1 0 2 0 4 1 1 1 1 7 1 2 5 2 3 2 7 10 10 8 9 10 12 14 15 10 4 6 8 10 11 9 12 14 10 12 11 10 8 10 10 9 11 9 8 9 7 8 8 8 6 8 7 7 5 7 5 5 7 6 6 7 7 4 4 5 5 5 4 4 4 4 3 3 3 3 3 3 3 3 3 3 4 5 4 4 4 3 3
5 10 6 7 3 3 1 3 2 1 1 1 3 1 0 2 2 8 2 4 2 5 2 3 4 7 8 9 9 8 9 7 3 6 14 11 12 13 12 12 14 11 12 13 8 8 8 10 11 10 10 10 9 10 8 7 8 9 6 7 8 7 7 6 6 6 5 7 7 7 8 5 4 4 5 5 5 5 5 4 4 4 4 3 3 3 4 3 3 4 3 3 4 4 4 3 2
3 1 4 2 3 1 5 1 2 2 0 0 0 2 1 0 8 5 3 4 2 3 4 3 6 6 6 6 6 7 10 6 6 8 12 13 12 11 15 14 12 12 10 9 10 9 11 10 11 11 11 10 10 10 9 8 7 8 8 6 6 8 7 6 6 6 6 5 7 8 8 6 5 5 5 6 5 5 5 5 4 3 3 3 3 4 5 4 4 4 4 3 4 4 4 4 3
2 8 4 3 2 2 1 1 2 1 0 1 1 3 7 10 13 2 1 5 3 0 4 5 6 6 6 6 7 8 6 6 9 13 12 11 10 10 13 11 10 10 8 7 9 12 10 6 7 9 12 12 11 9 9 9 8 8 8 7 6 8 7 7 7 6 6 6 6 7 8 7 5 5 6 5 5 5 5 4 4 4 4 4 4 5 5 4 4 4 5 4 4 3 4 3 4
6 1 5 1 3 3 2 1 3 4 1 1 1 3 6 6 6 3 3 0 1 3 5 6 5 5 6 6 7 9 9 9 13 12 10 10 9 9 11 8 10 10 7 8 13 12 11 9 7 6 10 13 13 13 11 9 8 8 8 8 7 8 8 8 8 7 7 6 7 6 7 7 7 7 6 6 6 5 5 5 5 4 4 4 4 4 5 4 4 5 5 5 4 3 3 3 3
3 5 1 1 4 3 5 2 2 4 0 2 3 2 8 9 7 4 2 2 3 6 6 5 5 6 6 6 8 8 11 8 10 11 11 11 10 10 11 12 10 10 13 12 10 9 12 12 10 9 8 11 11 13 13 11 9 8 9 8 7 8 8 9 9 8 8 8 7 6 8 8 7 7 7 7 7 6 6 6 5 5 6 5 5 5 5 5 5 4 4 5 6 4 4 3 2
5 2 1 3 0 3 4 0 1 2 1 2 2 5 4 3 3 2 1 5 3 1 6 7 7 8 7 8 8 8 9 10 9 12 14 12 10 11 11 11 11 13 11 10 12 11 12 13 12 12 12 12 11 10 10 12 12 9 8 9 9 8 7 8 8 9 9 9 9 8 8 8 8 7 7 7 6 7 6 6 6 6 6 6 6 5 5 5 6 5 5 4 3 5 5 5 4
2 3 2 2 3 2 2 3 1 4 1 4 2 2 7 4 6 6 3 1 0 4 6 7 7 7 8 6 7 9 9 9 12 13 16 14 11 13 11 10 12 11 10 11 12 13 14 12 12 13 12 11 9 11 9 8 10 12 10 7 8 10 12 10 8 8 8 7 7 8 11 11 10 10 10 9 7 7 7 7 6 7 7 6 6 5 4 4 4 6 6 5 5 5 5 6 5
6 2 1 1 1 2 3 2 1 1 1 3 1 4 11 11 11 10 5 2 1 7 7 7 8 8 8 7 8 9 9 10 15 12 10 11 13 13 11 12 11 11 9 11 10 10 9 9 10 12 12 12 11 10 11 9 6 6 6 10 8 6 4 5 6 9 11 11 11 11 10 9 9 9 8 9 8 7 6 6 7 9 7 6 6 5 5 5 4 5 6 7 4 4 4 4 4
9 10 6 4 6 4 3 5 3 0 1 4 4 8 6 8 10 11 5 2 3 8 5 7 9 9 10 9 9 8 10 13 14 6 6 7 9 10 11 9 10 10 9 9 10 10 10 10 10 10 11 11 10 9 8 10 10 8 7 5 9 12 9 6 6 4 3 6 9 11 11 10 11 11 11 10 7 7 7 7 8 9 9 9 9 8 7 7 9 8 7 7 7 4 3 4 5
6 5 5 4 4 1 3 3 2 0 1 5 4 6 6 11 12 12 12 2 5 7 11 11 10 10 9 9 10 10 10 15 4 5 7 8 9 9 8 8 9 9 9 10 11 12 13 13 12 14 13 11 10 10 10 9 9 11 11 12 10 6 9 10 9 9 8 8 10 10 11 12 13 11 10 11 9 9 8 6 6 7 8 9 10 11 12 12 11 10 8 7 9 6 3 4 6
6 5 5 3 1 3 1 0 2 3 1 2 3 4 11 12 11 12 10 4 11 11 11 11 13 11 9 9 11 11 12 4 5 8 8 5 7 6 6 7 8 10 12 12 14 15 14 13 13 13 9 11 12 11 10 10 10 9 9 11 11 10 8 9 10 9 9 8 10 12 11 8 8 9 10 11 12 9 10 9 9 8 9 9 9 6 7 8 10 9 9 8 8 11 9 9 7
4 5 3 2 4 3 3 1 2 4 1 5 2 4 11 12 10 11 9 12 8 8 9 9 8 10 9 8 10 10 7 11 6 11 8 7 6 6 7 7 8 11 10 13 14 11 11 11 12 11 10 11 12 12 11 11 10 9 9 5 8 5 7 8 9 9 8 7 7 10 11 13 14 13 14 12 11 11 11 9 10 10 9 8 7 8 8 9 9 10 11 9 8 5 4 7 10
6 5 3 5 2 3 4 3 1 3 2 2 1 5 11 10 6 12 12 8 7 6 7 10 8 12 14 12 7 7 9 10 13 11 10 7 8 7 6 8 9 8 8 9 10 13 11 11 12 12 11 12 11 12 12 11 9 5 5 3 4 5 4 5 5 5 8 9 8 7 9 10 13 13 13 13 12 11 12 12 10 11 11 10 8 8 9 11 11 8 8 7 5 7 5 8 10
1 3 4 3 2 2 2 1 0 1 1 2 1 4 9 4 7 7 3 4 4 7 6 8 10 10 10 9 9 10 14 12 13 12 9 7 7 9 10 9 6 9 10 10 11 11 10 13 13 13 11 11 10 10 11 9 6 5 4 3 2 2 2 3 4 4 7 7 6 8 9 6 7 9 10 11 11 12 12 14 11 9 12 13 10 8 9 12 12 11 12 11 12 13 10 6 9
0 4 5 4 4 6 0 1 2 3 2 5 2 3 4 4 7 9 9 8 6 3 5 10 9 6 4 9 12 8 8 10 13 14 11 5 7 6 6 7 8 8 9 10 9 10 10 9 9 10 9 9 10 11 11 9 9 8 7 7 7 6 7 6 8 10 6 8 10 6 4 6 7 7 7 9 10 8 8 8 9 10 10 9 9 9 7 7 9 9 9 11 13 11 9 7 9
3 5 6 4 7 7 6 3 3 1 1 2 3 3 6 7 6 6 5 8 12 8 5 11 8 6 5 8 8 8 8 9 8 11 10 10 9 7 8 7 8 9 10 6 7 8 9 8 9 10 10 8 8 9 10 9 8 8 10 11 10 10 10 9 8 7 8 7 6 7 6 5 6 8 7 8 9 11 11 10 9 8 8 7 7 6 7 11 11 12 10 11 10 8 5 9 12
5 1 6 8 8 7 5 5 2 1 1 2 5 3 1 7 9 4 5 5 10 10 10 8 6 4 6 7 8 9 10 9 9 9 9 8 7 7 9 7 7 8 5 6 7 7 10 10 10 10 8 8 8 9 10 10 10 9 10 10 10 10 10 10 8 7 6 5 6 7 6 6 6 6 6 7 9 10 11 12 12 13 13 13 12 10 12 12 10 10 12 13 11 10 11 12 11
2 2 5 6 7 5 6 5 5 1 1 5 3 1 1 5 9 3 3 3 5 9 10 9 7 8 6 6 6 7 9 10 8 10 10 7 6 6 7 7 6 5 5 7 7 8 7 8 8 8 8 8 8 10 10 10 10 10 10 9 9 9 8 6 3 3 5 5 7 7 7 7 7 7 7 6 6 7 9 10 10 11 11 12 10 13 11 11 12 14 11 10 12 12 12 13 9
1 5 7 8 8 7 5 4 4 1 1 5 3 1 3 8 7 5 3 1 7 11 12 9 7 7 8 8 8 7 7 7 7 10 10 9 7 6 5 6 5 3 4 5 5 6 7 7 8 9 8 8 8 10 10 10 10 9 9 9 11 8 5 3 4 5 6 6 7 7 8 8 8 7 7 7 6 5 6 8 8 9 10 9 8 10 10 9 9 10 12 12 12 13 11 11 13
10 4 8 7 8 5 4 7 3 3 1 6 3 4 1 5 6 7 3 5 7 4 5 5 6 6 6 6 6 7 8 7 7 6 7 8 7 6 5 3 2 2 2 4 6 6 6 7 8 9 8 7 8 10 10 11 9 9 10 10 11 10 9 7 6 6 5 5 7 7 7 7 7 7 7 7 7 7 7 7 9 10 10 11 10 10 10 10 10 11 11 11 13 14 12 12 12
5 3 5 7 5 6 4 4 5 2 5 4 1 1 0 6 6 6 7 5 5 3 3 7 8 7 7 6 6 7 6 7 8 6 4 4 2 4 3 3 3 3 4 5 5 5 6 6 7 8 7 8 7 8 9 9 9 9 9 9 10 10 10 9 10 10 9 9 9 8 7 6 6 6 6 6 6 6 6 6 6 6 8 9 11 11 12 11 11 10 11 12 13 16 14 14 12
4 6 7 8 1 4 1 2 2 5 5 1 2 2 1 11 9 7 9 10 8 7 7 6 6 9 8 7 8 8 7 7 6 6 5 3 2 1 1 1 1 3 4 4 5 5 5 6 8 9 8 7 7 7 9 9 9 9 9 9 10 8 9 10 10 10 9 8 8 7 6 7 6 6 7 8 8 9 8 7 6 7 6 7 8 8 9 10 10 11 11 13 13 14 13 14 13
2 8 7 6 2 2 2 3 1 6 5 4 1 1 4 5 7 14 18 17 3 8 11 8 6 8 8 8 9 10 9 7 6 5 5 4 2 1 1 1 2 3 3 4 4 5 5 6 6 8 8 7 7 7 8 8 9 9 9 9 8 8 9 9 9 9 8 8 7 9 9 9 9 10 9 10 9 9 8 9 9 8 8 7 8 9 10 10 10 10 11 13 14 14 14 15 15
7 0 7 8 7 6 5 4 5 6 5 2 4 1 7 2 1 1 7 10 5 5 5 5 7 8 8 8 10 10 8 6 3 4 3 2 3 1 0 1 2 3 2 3 3 4 5 5 6 7 7 7 7 8 7 9 8 8 8 8 7 7 8 8 7 7 7 8 7 8 7 7 8 8 9 9 7 8 10 9 9 9 8 8 8 8 8 9 10 9 9 11 11 11 11 11 12
0 2 4 5 7 5 2 3 2 1 1 1 1 6 4 5 3 9 5 8 9 6 6 3 8 5 4 7 7 7 7 6 4 2 1 1 2 2 2 2 2 3 3 3 4 4 5 5 5 5 6 7 7 7 7 8 8 7 7 9 9 9 7 6 5 6 6 7 7 8 8 8 8 8 7 7 8 8 9 9 9 10 9 9 8 8 8 8 9 10 10 10 12 8 10 13 13
4 4 3 3 2 11 7 1 1 1 4 6 2 8 7 8 7 10 7 2 9 5 5 4 6 4 2 6 6 7 7 5 4 3 3 3 2 2 3 2 3 3 4 6 6 6 7 7 6 6 3 5 6 6 6 5 4 5 7 7 7 7 7 8 8 8 8 7 6 7 8 8 7 7 7 7 7 8 7 9 9 9 9 9 9 9 8 9 9 10 10 10 11 9 9 12 11
9 2 7 2 2 5 5 3 2 3 3 7 2 7 6 4 9 5 5 3 9 3 8 5 4 3 3 4 5 6 6 6 5 7 6 6 6 5 4 4 4 5 6 6 7 7 6 6 7 7 6 7 6 6 5 5 5 5 6 6 6 6 6 7 7 8 6 6 7 7 7 7 8 7 7 6 7 8 8 8 8 9 9 9 10 9 8 8 8 8 9 10 10 8 10 10 11
2 3 3 6 3 2 2 5 1 1 2 5 3 3 6 7 8 4 2 1 0 3 0 0 1 2 2 3 5 6 6 6 5 3 4 4 4 5 4 3 3 5 5 5 5 6 5 5 6 7 9 7 6 5 5 4 6 6 6 6 6 6 6 6 6 6 6 7 8 7 8 8 6 6 6 7 8 8 7 8 8 9 8 9 9 10 9 9 8 8 9 8 8 8 9 11 11
1 2 4 0 3 1 4 6 3 4 4 2 7 3 7 7 6 8 10 8 8 4 4 4 4 5 4 4 4 4 4 4 6 6 5 4 5 6 6 4 3 4 5 5 5 4 6 6 7 6 4 3 4 5 6 7 7 6 6 5 6 5 5 6 6 6 7 8 8 7 7 7 8 6 7 7 7 8 8 8 8 8 9 9 9 9 8 9 9 10 10 10 10 10 12 13 12
2 2 2 0 2 2 4 1 3 4 5 5 2 6 6 6 8 6 9 9 8 8 6 1 3 2 2 3 5 5 5 5 6 6 6 5 4 3 3 4 2 1 2 2 4 6 6 5 6 6 7 6 6 6 6 6 4 5 5 7 6 5 6 5 6 7 7 8 7 7 7 7 3 7 7 7 8 8 8 8 8 9 10 10 9 9 8 8 9 11 10 11 11 11 12 12 10
9 10 10 11 9 5 4 7 3 2 3 4 4 9 5 9 4 9 8 6 5 4 5 4 7 4 4 6 7 6 7 5 4 4 4 4 3 2 0 1 1 2 3 4 5 5 5 7 6 5 5 5 6 5 5 5 4 4 6 5 5 4 5 5 6 7 8 8 7 7 7 5 8 7 7 8 8 7 7 8 9 10 9 9 9 10 8 8 10 11 12 10 11 11 12 12 10
Wind_Direction
346 351 349 12 11 115 54 1 166 322 62 137 315 146 175 36 220 102 193 37 142 233 187 79 138 152 189 205 185 184 214 142 206 142 209 240 244 181 158 182 143 133 137 140 126 150 147 143 126 117 113 112 112 111 110 106 101 98 94 93 92 92 95 97 98 96 88 88 87 98 99 100 98 97 96 95 95 94 91 91 91 90 86 83 85 84 84 87 85 86 85 82 80 82 84 83 81
9 340 9 19 351 42 239 126 96 354 40 79 237 112 244 284 67 212 170 186 202 166 186 120 105 103 84 74 111 125 98 289 183 55 159 155 129 142 190 169 146 139 142 142 137 143 141 140 124 119 116 117 119 116 112 110 108 105 102 98 97 97 98 99 97 94 94 92 92 98 100 101 102 102 103 103 100 97 95 93 90 88 87 88 86 86 90 89 88 87 88 87 86 84 82 82 85
12 10 353 23 34 74 90 27 298 7 86 230 270 207 354 140 203 220 208 206 235 159 144 94 121 28 4 53 360 83 236 33 198 256 112 137 133 186 187 162 144 138 141 131 137 142 137 139 129 124 121 123 122 117 114 112 110 105 103 102 102 103 100 96 95 98 95 86 83 96 102 105 104 103 103 104 103 98 94 93 93 88 88 88 91 90 90 93 93 90 89 88 88 86 85 85 84
68 46 176 65 228 27 53 29 88 120 128 201 322 250 183 178 220 197 226 255 149 121 215 140 152 232 188 281 234 78 322 315 221 148 135 165 175 150 161 150 140 138 132 123 133 129 129 140 134 128 129 129 124 121 117 113 110 109 110 108 104 104 105 99 95 92 94 93 87 98 101 100 99 102 104 104 103 101 97 94 94 98 97 96 92 93 94 96 95 93 92 89 87 85 86 86 84
82 341 92 111 110 13 103 95 127 87 181 190 174 262 233 202 180 176 159 201 214 76 51 162 83 349 97 109 111 182 255 193 211 210 140 160 118 153 153 145 144 141 136 132 132 128 121 131 132 131 132 134 129 123 120 117 114 112 109 108 108 106 105 102 97 94 96 97 90 97 101 102 101 103 104 104 103 102 99 96 93 91 91 92 92 91 96 100 98 97 95 94 92 90 89 88 87
64 37 6 84 66 164 74 75 62 170 218 153 116 234 218 205 157 178 141 183 251 223 200 138 161 187 161 319 178 143 190 134 172 187 161 173 154 160 151 142 147 145 141 138 132 130 132 132 138 137 135 134 130 127 122 120 117 114 115 113 110 109 108 103 95 97 101 91 94 95 97 101 102 104 106 107 103 99 98 101 97 94 89 88 89 96 97 97 101 102 98 93 94 91 91 91 88
241 47 360 44 35 53 153 128 222 193 280 162 216 262 200 190 200 132 130 121 289 42 122 207 108 91 84 291 16 244 214 128 150 173 179 152 152 159 150 148 147 148 147 149 138 132 133 137 156 143 136 136 137 132 127 123 120 120 117 115 115 113 111 108 102 99 106 99 91 93 97 98 100 105 106 104 102 102 101 98 101 104 100 96 101 100 98 95 95 92 91 93 92 91 90 90 87
50 139 318 99 358 43 52 135 234 174 12 186 225 255 239 195 153 149 167 139 211 187 204 267 278 111 234 90 168 180 320 222 250 23 202 150 154 158 156 149 147 151 151 150 153 141 143 133 164 142 137 139 140 136 134 128 126 124 122 120 117 117 116 111 110 105 98 104 101 104 102 102 101 104 107 108 109 108 104 101 99 95 97 94 96 92 91 95 95 96 97 95 92 92 91 86 84
3 85 284 75 58 33 67 81 255 241 292 252 275 222 310 179 172 136 167 243 335 184 235 213 219 172 223 63 166 285 298 295 320 226 167 154 159 160 158 156 151 152 153 154 158 152 156 145 166 144 141 144 145 145 140 133 132 132 127 124 121 120 119 113 112 111 103 105 108 104 106 104 104 103 107 110 111 113 111 107 104 103 101 103 101 102 101 101 102 101 100 100 99 96 92 90 89
38 40 242 111 133 33 7 280 108 177 241 235 239 213 168 166 155 133 154 107 204 129 234 351 205 211 120 155 347 335 137 338 290 132 157 157 162 161 156 158 154 152 153 156 160 163 164 155 165 149 147 151 149 151 144 136 137 135 132 127 124 123 122 121 117 114 111 109 112 113 114 112 111 111 112 113 117 117 115 111 109 108 109 109 106 104 103 102 101 103 103 101 100 101 98 95 97
5 18 140 76 32 81 136 261 264 315 267 313 284 235 203 141 120 118 79 148 47 151 270 112 134 146 124 263 203 277 311 292 156 160 158 159 158 164 155 152 154 155 156 159 159 161 168 158 155 155 152 152 147 153 145 138 140 138 134 130 128 128 128 126 122 119 120 119 119 123 124 123 121 120 119 116 121 123 118 113 110 113 114 110 109 108 105 105 106 106 105 103 102 104 102 100 103
44 16 14 101 133 140 224 156 280 282 294 324 110 248 200 146 109 135 177 136 203 225 170 158 253 147 72 328 277 227 319 199 171 153 155 153 159 162 156 150 152 158 158 157 154 165 171 157 151 158 154 146 152 152 148 143 141 138 135 134 132 133 133 129 127 126 124 124 124 121 116 117 126 126 122 123 126 129 122 114 113 114 115 113 111 108 106 106 105 105 103 104 105 107 108 109 108
114 85 87 85 166 153 159 116 253 309 348 277 154 218 144 122 184 190 166 109 98 117 280 204 110 48 184 185 250 311 161 192 177 152 144 156 158 152 153 151 156 155 159 158 160 164 173 166 155 161 151 136 143 149 150 142 137 137 139 137 135 134 136 133 131 129 127 127 126 120 116 111 109 117 120 120 120 137 129 117 110 115 116 116 113 109 107 106 107 108 108 110 111 111 112 112 110
116 177 127 137 41 123 143 169 335 124 280 220 275 122 193 136 227 170 132 142 193 165 245 173 128 156 108 1 293 305 221 186 174 154 140 140 133 145 159 155 154 156 163 166 164 166 170 172 154 154 152 147 150 143 144 141 140 138 136 135 134 133 139 136 132 131 128 118 109 105 108 111 114 115 114 113 115 94 99 107 113 119 119 116 115 113 111 114 114 113 113 112 112 112 110 109 99
111 162 83 115 49 123 235 93 188 142 225 173 159 138 191 272 104 132 168 154 244 212 324 211 189 125 229 152 273 205 197 177 154 145 131 129 138 152 163 158 157 158 165 168 166 170 169 176 153 155 156 148 155 150 154 146 141 137 136 136 135 135 134 132 124 117 114 113 109 102 95 90 88 89 91 100 93 70 97 106 111 118 123 122 122 121 118 117 116 116 116 116 112 110 106 95 91
136 94 80 102 161 130 219 126 267 101 253 182 146 230 135 338 209 119 246 150 180 340 97 192 85 236 209 125 194 274 228 144 146 137 131 134 141 145 157 164 163 168 177 171 169 180 167 175 161 156 156 156 159 154 155 157 142 141 142 140 138 133 128 118 118 114 110 107 104 102 99 97 93 90 90 89 84 84 101 112 118 125 125 127 125 123 119 121 119 120 119 118 115 105 91 86 82
93 81 65 43 166 176 212 157 151 171 240 248 284 165 163 202 308 268 124 102 125 187 348 243 226 9 183 157 188 324 254 144 135 137 135 143 151 157 168 172 177 175 196 181 183 183 175 174 162 165 164 163 157 156 157 159 152 143 142 140 135 130 123 117 111 110 109 108 110 107 104 101 98 95 92 89 87 82 96 113 121 127 119 118 122 125 124 124 124 121 121 108 94 88 79 70 66
56 80 114 88 200 143 198 175 189 208 117 205 184 209 134 194 290 334 89 41 54 351 217 300 292 261 241 259 276 296 249 152 148 148 155 157 164 167 179 187 187 196 191 191 196 183 185 177 166 166 163 168 160 159 158 156 155 150 151 146 138 128 120 122 120 119 117 113 113 112 106 110 105 103 97 97 81 83 98 106 102 102 114 119 123 126 127 121 121 126 106 99 94 90 78 87 79
88 131 93 198 186 237 163 190 184 125 195 165 178 188 184 204 143 229 118 263 10 147 268 356 293 282 317 330 329 191 169 157 160 162 161 170 178 177 184 186 193 193 196 196 199 189 191 184 171 169 168 167 161 162 163 155 156 155 151 148 140 131 133 127 124 122 123 117 111 110 113 109 111 106 103 98 85 84 97 105 101 99 98 101 111 113 120 121 127 108 98 94 93 85 83 84 82
204 115 159 248 205 213 209 168 187 235 139 121 146 185 159 180 140 130 209 191 47 205 206 295 254 239 215 280 131 166 164 165 170 171 175 180 189 186 185 192 195 197 195 196 194 192 185 181 187 169 169 165 166 166 158 162 159 158 160 154 149 148 148 144 142 141 139 127 121 118 116 114 112 111 106 101 95 87 87 84 85 83 79 75 90 102 106 121 105 88 86 87 83 85 83 82 86
213 84 154 222 185 121 220 189 234 205 147 141 128 101 167 244 196 160 175 113 255 261 231 185 207 220 193 205 175 163 166 167 175 182 187 189 195 200 202 197 195 193 191 178 188 196 198 184 189 180 164 170 171 170 166 170 159 157 160 157 154 156 152 152 150 147 143 143 134 125 122 122 115 117 114 103 92 99 94 96 94 91 86 83 83 75 83 78 82 95 89 75 81 88 89 78 89
98 174 200 150 147 81 225 197 218 154 201 112 133 133 209 109 92 132 153 182 224 213 240 215 220 195 162 173 180 169 171 173 179 188 193 192 194 201 201 199 188 190 175 185 192 193 198 193 180 187 170 175 177 181 171 166 161 166 159 158 159 162 159 156 155 152 149 149 147 140 130 122 126 124 125 114 110 108 108 109 102 105 102 96 83 111 111 112 103 102 94 92 86 81 81 83 60
148 315 44 193 215 125 202 205 220 152 129 137 145 200 104 144 174 178 178 210 228 230 253 250 223 183 172 147 158 173 175 182 187 195 194 196 201 205 205 200 191 189 191 201 187 195 193 200 190 175 190 188 187 178 174 169 179 168 164 163 161 166 167 162 163 160 157 153 151 151 145 148 142 141 135 133 122 122 118 119 120 120 117 115 121 131 125 113 108 104 102 96 99 95 89 91 88
102 181 132 191 217 56 245 249 133 147 134 181 186 120 126 139 199 125 215 238 213 209 247 273 251 137 145 151 179 175 184 186 196 198 195 198 197 200 197 199 203 195 200 199 199 194 188 197 198 183 188 191 191 178 184 175 191 169 170 166 166 157 159 173 169 170 158 158 159 160 153 151 154 152 148 143 133 131 126 123 122 124 121 125 131 136 129 119 109 102 108 105 105 96 102 95 104
97 111 190 129 49 299 333 69 111 152 173 74 120 136 207 180 170 87 247 246 245 261 17 99 111 133 162 166 180 192 194 199 202 203 208 222 210 196 200 196 200 203 215 207 200 196 191 186 188 192 191 190 192 187 192 186 189 182 162 174 182 160 164 170 174 165 168 161 166 166 164 154 159 153 152 149 141 133 128 135 138 133 132 135 139 140 133 128 118 120 119 119 112 115 113 110 104
150 132 114 125 92 353 138 66 66 102 118 135 99 94 336 239 189 241 244 261 273 283 117 129 128 150 181 190 190 188 194 200 199 193 206 197 181 190 209 201 197 205 211 209 204 204 191 183 191 194 193 193 191 191 194 192 191 198 172 176 181 168 170 157 159 174 174 169 169 176 176 168 163 162 157 150 153 145 141 138 141 145 142 141 143 140 142 130 131 128 121 123 126 123 119 117 120
129 102 98 106 331 5 360 154 19 303 113 299 151 176 114 322 84 277 328 244 329 103 121 176 161 181 197 200 203 207 196 200 197 189 151 190 205 207 213 206 207 213 201 207 205 204 192 183 193 192 196 187 186 196 196 191 189 203 190 173 169 176 168 159 155 161 178 179 180 179 178 172 160 161 152 154 153 147 150 153 153 145 142 146 141 128 128 129 130 133 142 140 140 131 115 115 114
84 133 113 49 358 76 7 71 25 311 57 43 135 137 351 326 97 231 195 332 290 156 188 191 210 206 201 207 208 210 221 222 154 166 200 189 207 208 208 206 212 207 206 210 200 190 190 193 190 191 193 194 192 195 195 197 192 195 200 184 172 175 166 166 159 159 166 185 181 184 183 173 164 156 156 158 155 156 160 160 152 158 150 136 138 133 131 131 124 118 106 99 105 112 113 108 94
151 163 118 316 12 76 5 114 319 359 150 127 185 91 302 108 225 245 240 345 60 156 193 231 230 239 242 233 225 217 221 206 201 211 215 211 210 207 213 212 206 207 216 206 201 194 201 197 193 190 192 190 194 196 196 199 195 191 194 194 176 169 173 168 170 162 161 169 185 185 185 176 168 164 166 164 158 160 157 158 158 162 148 144 137 134 126 126 126 122 109 111 105 107 109 105 96
110 43 118 45 14 353 329 309 325 105 264 31 296 234 255 244 241 233 46 350 359 135 240 238 241 250 257 245 230 235 228 200 216 221 218 219 216 212 221 215 208 211 203 202 193 207 201 198 194 191 194 198 198 201 196 198 197 193 193 191 172 169 173 175 177 170 160 162 173 180 184 178 170 170 165 163 162 159 161 165 162 156 154 145 139 145 146 149 140 134 133 130 127 131 131 130 137
129 218 58 119 117 245 317 23 316 137 302 334 145 206 280 270 286 259 310 26 178 260 256 257 259 262 251 245 243 239 236 216 222 229 234 230 227 224 226 215 209 207 189 200 205 203 198 203 192 195 190 198 196 200 202 202 196 195 191 192 189 174 177 181 180 174 170 163 162 174 181 175 178 172 174 163 166 165 164 167 171 164 152 152 150 160 152 150 146 147 150 138 132 129 126 140 145
27 82 275 333 160 268 301 69 19 169 346 18 100 301 242 259 257 292 341 49 149 232 261 280 282 270 260 249 245 247 243 232 245 248 240 237 226 228 221 220 205 201 204 204 205 196 206 205 200 205 188 196 196 200 199 200 205 200 194 191 191 188 182 184 181 182 180 174 169 165 175 180 180 174 175 175 163 171 172 173 174 157 160 158 160 158 160 158 156 149 162 153 146 152 150 145 142
358 81 233 200 89 250 342 35 23 326 177 8 171 221 324 318 268 267 327 69 102 197 285 279 277 267 262 250 240 244 259 253 243 238 236 229 229 226 224 221 208 211 206 196 197 199 207 205 204 205 204 203 199 197 203 201 199 206 203 195 190 187 193 190 183 182 182 179 178 174 174 177 184 175 176 181 171 168 177 175 168 166 164 164 164 164 171 165 159 157 164 185 171 154 164 147 149
244 30 139 211 163 239 253 308 323 358 88 212 9 212 232 239 277 290 295 212 293 297 268 274 271 267 258 255 250 247 244 250 245 234 232 221 227 221 223 220 217 212 209 205 200 198 205 203 204 207 210 209 208 200 200 204 203 198 197 202 201 194 191 189 183 176 187 185 178 184 180 183 185 182 181 182 191 182 179 173 158 169 169 163 159 163 168 162 168 167 161 176 176 159 167 166 163
194 162 89 270 293 214 235 143 228 15 21 199 318 266 267 276 285 276 259 223 231 259 256 268 277 268 263 249 251 245 245 245 246 237 233 223 225 226 221 219 216 211 209 206 201 203 201 204 206 208 207 206 210 210 206 214 203 196 199 188 187 211 215 217 202 192 185 179 183 184 182 186 194 193 191 184 181 179 178 178 166 168 171 166 157 158 152 168 177 189 171 163 168 183 170 168 148
179 176 178 144 152 219 213 244 280 126 218 247 223 235 267 282 281 285 280 172 207 266 287 275 264 261 261 249 245 243 239 249 248 250 238 230 222 221 219 214 215 212 209 199 201 198 201 202 204 210 209 205 201 202 200 204 216 223 218 220 204 205 205 199 202 202 169 194 192 182 183 185 191 192 188 190 196 181 175 180 184 175 176 170 166 165 170 179 184 176 187 169 160 139 142 148 137
108 81 94 168 162 273 280 281 274 301 130 245 252 282 276 270 265 272 278 245 269 272 277 269 259 257 252 250 245 242 240 242 257 229 229 226 225 220 217 203 210 206 206 199 199 203 202 201 193 207 204 199 198 198 201 199 197 199 208 216 226 208 202 202 207 206 199 185 185 193 190 198 193 190 188 185 194 195 192 176 165 185 182 180 178 185 183 183 180 178 163 168 162 155 153 152 157
134 140 153 209 195 160 205 135 341 318 158 288 19 318 275 260 269 267 274 303 267 250 252 259 261 252 248 241 250 245 244 290 289 277 252 241 243 231 212 206 193 194 211 199 203 206 205 200 201 208 193 199 204 200 198 198 202 202 195 202 204 206 203 202 208 209 209 200 191 189 186 188 189 190 193 195 201 193 194 188 183 177 188 195 200 190 179 179 179 178 167 172 193 173 173 167 167
54 141 150 116 258 239 286 270 327 333 116 266 6 337 282 276 263 264 252 250 245 230 220 239 247 263 256 246 245 256 275 270 271 253 262 251 244 233 208 207 209 211 205 202 211 205 201 201 207 201 195 197 204 202 197 205 202 203 200 189 189 184 193 195 204 193 188 201 196 191 192 187 191 201 201 199 199 201 202 191 190 188 192 191 188 190 185 186 188 183 183 179 173 206 140 167 178
113 101 105 200 243 142 255 269 351 357 82 314 331 324 286 285 271 257 258 241 261 264 256 258 239 250 252 251 252 258 259 261 261 252 253 243 236 237 220 214 213 209 210 207 206 204 201 204 204 199 198 198 200 200 203 206 201 195 198 172 183 162 178 172 179 175 182 187 207 205 212 209 193 194 196 195 199 198 195 194 188 185 193 197 198 190 185 196 194 189 190 200 153 156 199 191 196
339 132 134 137 160 228 150 183 344 315 67 65 349 293 296 319 318 315 321 328 314 284 314 276 260 243 260 281 277 241 251 254 265 273 257 243 244 236 222 223 199 206 210 207 200 201 199 203 203 198 196 197 198 196 197 192 167 146 125 80 100 90 44 144 174 206 189 185 204 212 216 203 208 206 198 197 198 201 199 206 198 192 191 194 197 200 199 201 198 203 195 185 186 197 189 182 202
139 229 172 188 174 135 260 10 101 23 332 6 46 326 307 305 291 251 281 345 324 283 322 282 267 266 265 260 257 262 247 246 248 258 263 258 239 254 251 231 215 217 217 214 202 202 197 200 194 193 192 191 193 191 186 179 181 175 163 164 168 187 204 190 205 208 201 193 207 205 202 196 198 206 196 192 195 202 207 204 203 199 200 200 199 203 197 182 189 191 199 206 206 206 185 168 198
139 253 163 142 142 128 126 124 78 45 166 348 17 186 269 320 297 286 324 326 299 301 250 266 278 273 264 257 270 274 267 267 254 259 266 265 257 253 251 232 218 216 223 193 194 197 194 191 188 187 189 188 182 179 177 176 183 183 188 195 198 202 207 213 212 208 203 215 207 200 204 197 203 200 199 196 195 195 199 199 200 201 202 209 210 195 186 198 199 200 196 204 209 196 160 192 199
221 238 126 112 115 133 162 111 103 182 256 288 47 97 217 307 281 266 322 312 298 308 294 285 273 279 268 267 277 280 278 270 269 266 261 250 256 234 246 240 222 223 199 178 186 183 187 187 181 184 181 178 177 170 175 182 185 187 191 199 203 208 211 215 200 206 203 185 200 210 203 204 205 214 210 199 195 198 203 203 198 199 198 202 197 198 203 201 196 193 192 200 199 197 199 203 201
228 211 143 136 142 141 119 94 107 125 45 279 336 344 288 252 268 315 355 339 315 299 285 276 307 307 298 294 278 273 273 272 263 267 269 269 256 253 255 264 255 238 201 186 184 183 180 172 171 168 173 170 173 172 176 185 189 188 193 197 206 215 216 214 181 188 205 202 209 208 211 214 210 209 210 217 208 200 205 212 205 206 206 209 202 215 217 213 206 203 193 192 202 205 206 214 206
255 131 93 94 85 76 96 105 84 355 81 266 218 13 208 277 274 317 336 253 266 256 264 290 281 279 296 302 303 303 302 289 270 258 270 277 271 270 264 274 285 253 207 178 163 161 162 158 161 166 172 173 169 173 177 183 187 185 192 200 207 208 195 184 165 192 204 203 217 215 217 219 222 222 214 214 219 211 202 199 200 204 207 207 202 216 214 208 205 205 203 205 207 211 215 220 223
130 141 85 46 41 34 37 59 87 66 326 251 250 301 158 297 265 227 166 215 205 247 301 283 291 295 282 261 268 296 313 316 306 290 268 265 271 275 294 351 4 40 94 138 147 154 152 155 157 167 172 162 167 173 177 183 186 187 196 200 203 205 197 188 189 201 199 206 214 218 213 218 215 218 215 219 215 214 213 204 205 204 201 198 197 203 210 207 205 204 204 203 206 210 213 215 223
118 107 131 82 5 11 30 347 32 129 265 263 263 246 246 193 291 280 244 274 227 202 281 290 296 301 292 301 306 305 311 311 316 334 341 342 39 34 45 46 50 66 88 111 129 136 148 151 155 156 159 165 170 172 178 182 185 193 200 197 201 205 195 194 201 207 200 199 203 217 218 222 217 217 216 218 215 214 214 216 213 213 208 202 203 200 203 201 201 201 204 207 215 216 213 213 217
83 92 97 115 225 33 281 9 250 212 200 246 329 188 10 241 230 268 279 264 247 213 214 244 268 284 294 298 310 315 311 321 323 335 338 2 25 15 37 18 79 130 141 144 146 148 147 151 159 158 167 167 171 170 182 184 188 196 195 198 204 199 198 198 206 211 203 210 210 215 213 218 216 222 218 221 220 213 215 220 213 212 209 209 211 209 214 208 206 204 207 214 220 219 215 214 217
103 138 141 110 115 78 218 273 281 314 290 276 312 245 264 265 273 238 245 256 220 203 220 230 234 249 269 288 313 317 314 307 300 310 314 317 321 308 290 283 239 206 164 157 152 148 153 152 159 163 173 172 166 169 180 183 197 197 198 201 203 192 203 203 209 208 208 208 203 213 212 214 217 220 221 222 220 220 221 225 224 222 216 211 207 210 209 207 205 208 209 212 216 221 221 217 222
202 45 154 178 144 157 205 191 190 214 199 286 280 77 233 110 252 295 232 260 294 260 246 250 266 264 273 292 291 290 293 304 316 313 306 305 297 292 286 278 268 241 220 177 165 146 139 151 162 163 160 181 174 181 181 193 198 199 198 202 202 198 207 208 212 208 208 209 210 215 214 218 222 224 222 227 222 224 228 229 230 233 226 218 207 208 208 208 208 210 215 221 224 225 224 224 230
309 163 71 97 216 132 133 207 142 163 144 15 225 217 196 182 280 286 234 278 285 275 275 299 275 273 294 301 290 290 295 293 304 301 301 272 258 265 254 266 270 253 234 212 175 159 157 168 171 174 173 179 184 185 199 200 204 198 197 201 208 204 208 206 211 208 215 211 213 211 221 215 221 222 224 221 222 218 226 229 230 233 234 232 224 216 209 206 204 210 218 218 226 218 222 223 230
220 103 201 207 115 99 102 58 353 93 44 258 161 310 287 297 309 277 317 283 260 248 278 283 268 286 319 267 290 294 285 289 291 298 270 263 271 244 228 228 233 219 213 196 191 184 176 164 167 173 163 159 192 202 203 210 212 207 219 220 217 214 208 210 215 215 217 211 208 213 220 227 225 219 226 214 222 220 224 226 230 232 231 231 231 225 219 214 207 212 218 218 225 214 218 227 228
100 178 223 179 141 126 127 199 352 61 183 263 88 235 300 19 281 330 348 347 289 262 229 253 289 327 284 279 293 276 282 283 276 275 269 263 271 273 255 244 229 212 204 201 197 190 179 169 170 170 178 187 203 193 206 202 209 221 231 233 237 232 226 227 223 225 216 212 220 226 233 237 231 227 222 222 217 224 222 222 229 232 229 228 230 228 221 219 216 221 223 224 224 211 221 227 230
142 198 195 115 217 226 312 92 230 150 260 272 295 279 264 196 247 339 278 231 274 266 304 33 315 317 292 293 285 281 284 301 315 313 316 314 298 279 258 233 236 224 222 213 205 177 167 172 180 177 187 195 182 179 185 200 204 213 212 217 221 228 233 239 241 239 225 223 224 219 221 233 240 222 218 217 220 226 224 226 226 233 230 230 230 230 223 224 219 230 229 231 224 219 225 233 234
21 74 85 87 100 158 123 197 178 127 244 57 287 36 250 200 219 199 245 260 258 280 315 243 246 265 258 242 252 260 281 309 313 316 301 288 271 259 252 221 210 214 215 219 195 165 170 184 179 195 193 145 157 187 195 210 210 206 216 213 223 219 228 237 241 235 233 232 233 226 229 230 231 218 219 223 226 225 224 226 226 230 233 233 231 231 222 225 227 233 235 234 231 226 232 236 241
80 105 186 131 32 230 102 20 124 184 173 184 226 315 277 260 211 183 229 237 237 210 236 130 189 219 246 235 252 273 282 293 298 292 301 297 285 273 257 246 265 325 306 241 177 176 184 181 189 189 182 190 197 204 194 217 197 214 212 228 227 215 237 234 248 238 242 245 241 234 234 236 227 229 217 224 227 227 226 225 228 229 231 233 230 232 225 225 230 238 237 237 238 233 238 245 241
167 162 187 171 130 141 168 248 27 93 121 220 134 253 260 272 174 201 211 244 248 244 233 216 225 248 249 265 266 262 284 281 267 281 277 285 292 294 316 35 10 166 205 180 196 169 174 190 195 179 181 192 195 202 196 213 212 216 221 232 232 225 231 238 244 249 245 249 244 237 237 230 232 238 209 226 229 228 224 226 230 233 234 233 235 234 226 223 231 238 241 238 240 237 239 242 234